Powrót do katalogu

STARLINK-30929

AktywnyŁącznośćVLEO
NORAD 58386·PAYLOAD·🇺🇸 United States

Wystrzelony Nov 20, 2023 z Vandenberg Space Force Base

Loading…

Następne Przeloty (najbliższe 24 godziny)

TLE

ŚwieżeSource: CelesTrak SupGP

Epoka: Sep 15, 2026, 03:17 UTC

1 58386C 23178N   26258.13729167 -.00071844  00000+0 -21227-2 0  2589
2 58386  53.1592 197.1362 0001404  88.3556 134.6480 15.34425354    13

Śledź STARLINK-30929 w czasie rzeczywistym z AllMySat

Download on the App Store